Date String (YYYY-MM-DD hh:mm:ss) UTC,Instrument flags,Ambient pressure (hPa),Sample flow (lpm),Bypass flow (lpm),Sample temperature (°C),Ambient temperature (°C),ASC tube jacket temperature (°C),LED temperature (°C),Box temperature (°C),Sample RH (%),Span deviation,Mass concentration (μg/m³),Mass concentration (μg/m³),Mass concentration (μg/m³)
DateTimeUTC,F1_M11,P_M11,Q1_M11,Q2_M11,T1_M11,T2_M11,T3_M11,T4_M11,T5_M11,U1_M11,ZSPAN_M11,X2_M11,X0_M11,X1_M11
2022-03-14 16:00:00,,0830.1,5.01,0.00,24.2,23.5,00.0,33.0,26.1,11.5,0000.0,0002.25,0004.28,0001.39
2022-03-14 16:01:00,,0830.1,4.99,0.00,24.2,23.5,00.0,33.0,26.1,11.6,0000.0,0002.25,0004.04,0001.41
2022-03-14 16:02:00,,0830.1,5.00,0.00,24.2,23.5,00.0,33.0,26.1,11.5,0000.0,0002.25,0004.00,0001.42
2022-03-14 16:03:00,,0830.1,5.01,0.00,24.2,23.5,00.0,33.0,26.1,11.6,0000.0,0002.33,0004.26,0001.43
2022-03-14 16:04:00,,0830.1,5.01,0.00,24.3,23.6,00.0,33.1,26.2,11.5,0000.0,0002.37,0004.41,0001.43
2022-03-14 16:05:00,,0830.1,4.98,0.00,24.3,23.6,00.0,33.1,26.2,11.4,0000.0,0002.38,0004.57,0001.44
2022-03-14 16:06:00,,0830.1,5.01,0.00,24.3,23.6,00.0,33.1,26.2,11.4,0000.0,0002.36,0004.61,0001.43
2022-03-14 16:07:00,,0830.1,5.01,0.00,24.3,23.6,00.0,33.1,26.2,11.3,0000.0,0002.37,0004.90,0001.42
2022-03-14 16:08:00,,0830.1,5.01,0.00,24.3,23.6,00.0,33.1,26.2,11.2,0000.0,0002.40,0005.05,0001.42
2022-03-14 16:09:00,,0830.0,5.00,0.00,24.3,23.6,00.0,33.1,26.2,11.4,0000.0,0002.50,0005.34,0001.41
2022-03-14 16:10:00,,0830.1,4.99,0.00,24.4,23.6,00.0,33.1,26.3,11.5,0000.0,0002.52,0005.54,0001.40
2022-03-14 16:11:00,,0830.1,5.00,0.00,24.4,23.6,00.0,33.2,26.3,11.5,0000.0,0002.53,0005.53,0001.40
2022-03-14 16:12:00,,0830.1,5.00,0.00,24.4,23.6,00.0,33.2,26.3,11.6,0000.0,0002.52,0005.55,0001.41
2022-03-14 16:13:00,,0830.1,5.01,0.00,24.4,23.6,00.0,33.2,26.3,11.7,0000.0,0002.51,0005.51,0001.41
2022-03-14 16:14:00,,0830.2,4.99,0.00,24.4,23.6,00.0,33.2,26.3,11.4,0000.0,0002.49,0005.46,0001.43
2022-03-14 16:15:00,,0830.1,5.00,0.00,24.4,23.6,00.0,33.2,26.3,11.4,0000.0,0002.50,0005.65,0001.44
2022-03-14 16:16:00,,0830.1,5.00,0.00,24.4,23.6,00.0,33.2,26.3,11.5,0000.0,0002.52,0005.81,0001.45
2022-03-14 16:17:00,,0830.1,5.00,0.00,24.4,23.6,00.0,33.3,26.3,11.5,0000.0,0002.47,0005.69,0001.45
2022-03-14 16:18:00,,0830.1,5.00,0.00,24.4,23.6,00.0,33.3,26.3,11.5,0000.0,0002.47,0005.34,0001.48
2022-03-14 16:19:00,,0830.1,5.00,0.00,24.4,23.7,00.0,33.3,26.3,11.5,0000.0,0002.46,0005.18,0001.50
2022-03-14 16:20:00,,0830.1,5.00,0.00,24.4,23.7,00.0,33.3,26.3,11.4,0000.0,0002.36,0004.81,0001.51
2022-03-14 16:21:00,,0830.1,5.00,0.00,24.4,23.7,00.0,33.3,26.3,11.4,0000.0,0002.30,0004.55,0001.53
2022-03-14 16:22:00,,0830.1,5.01,0.00,24.4,23.7,00.0,33.3,26.3,11.3,0000.0,0002.28,0004.48,0001.53
2022-03-14 16:23:00,,0830.1,5.01,0.00,24.5,23.7,00.0,33.3,26.3,11.3,0000.0,0002.33,0004.46,0001.54
2022-03-14 16:24:00,,0830.1,4.99,0.00,24.5,23.7,00.0,33.3,26.4,11.4,0000.0,0002.36,0004.51,0001.55
2022-03-14 16:25:00,,0830.2,5.00,0.00,24.5,23.7,00.0,33.3,26.3,11.6,0000.0,0002.32,0004.37,0001.55
2022-03-14 16:26:00,,0830.2,5.00,0.00,24.5,23.7,00.0,33.3,26.4,11.9,0000.0,0002.28,0004.51,0001.55
2022-03-14 16:27:00,,0830.2,5.00,0.00,24.5,23.7,00.0,33.4,26.4,11.7,0000.0,0002.32,0004.66,0001.55
2022-03-14 16:28:00,,0830.2,5.01,0.00,24.5,23.7,00.0,33.4,26.3,11.9,0000.0,0002.42,0004.89,0001.56
2022-03-14 16:29:00,,0830.1,4.98,0.00,24.5,23.7,00.0,33.4,26.3,11.6,0000.0,0002.44,0005.00,0001.56
2022-03-14 16:30:00,,0830.2,5.01,0.00,24.5,23.7,00.0,33.4,26.3,11.7,0000.0,0002.45,0005.17,0001.55
2022-03-14 16:31:00,,0830.2,5.01,0.00,24.5,23.7,00.0,33.4,26.3,11.6,0000.0,0002.51,0005.33,0001.56
2022-03-14 16:32:00,,0830.2,4.98,0.00,24.5,23.7,00.0,33.4,26.3,11.6,0000.0,0002.53,0005.46,0001.56
2022-03-14 16:33:00,,0830.2,5.00,0.00,24.5,23.8,00.0,33.4,26.4,11.8,0000.0,0002.52,0005.44,0001.57
2022-03-14 16:34:00,,0830.2,5.01,0.00,24.5,23.8,00.0,33.4,26.4,11.8,0000.0,0002.45,0005.29,0001.55
2022-03-14 16:35:00,,0830.2,4.99,0.00,24.5,23.8,00.0,33.4,26.4,11.9,0000.0,0002.46,0006.07,0001.56
2022-03-14 16:36:00,,0830.3,5.00,0.00,24.6,23.8,00.0,33.4,26.4,11.4,0000.0,0002.50,0006.32,0001.56
2022-03-14 16:37:00,,0830.3,4.98,0.00,24.6,23.8,00.0,33.4,26.4,11.3,0000.0,0002.48,0005.77,0001.56
2022-03-14 16:38:00,,0830.2,5.01,0.00,24.6,23.8,00.0,33.4,26.4,11.5,0000.0,0002.47,0005.46,0001.56
2022-03-14 16:39:00,,0830.3,5.01,0.00,24.6,23.8,00.0,33.5,26.5,11.3,0000.0,0002.43,0005.43,0001.56
2022-03-14 16:40:00,,0830.2,4.99,0.00,24.6,23.9,00.0,33.5,26.5,11.2,0000.0,0002.40,0005.35,0001.57
2022-03-14 16:41:00,,0830.2,5.01,0.00,24.6,23.8,00.0,33.5,26.4,11.2,0000.0,0002.47,0005.41,0001.58
2022-03-14 16:42:00,,0830.3,5.00,0.00,24.6,23.9,00.0,33.5,26.5,11.2,0000.0,0002.46,0005.44,0001.56
2022-03-14 16:43:00,,0830.2,5.00,0.00,24.6,23.9,00.0,33.5,26.5,11.4,0000.0,0002.43,0005.43,0001.55
2022-03-14 16:44:00,,0830.2,5.00,0.00,24.6,23.9,00.0,33.5,26.5,11.3,0000.0,0002.48,0005.75,0001.55
2022-03-14 16:45:00,,0830.2,4.99,0.00,24.6,23.9,00.0,33.5,26.5,11.2,0000.0,0002.48,0005.81,0001.54
2022-03-14 16:46:00,,0830.1,5.00,0.00,24.6,23.9,00.0,33.5,26.5,11.3,0000.0,0002.41,0004.93,0001.52
2022-03-14 16:47:00,,0830.1,5.01,0.00,24.6,23.9,00.0,33.5,26.5,11.1,0000.0,0002.36,0004.63,0001.51
2022-03-14 16:48:00,,0830.1,5.01,0.00,24.7,23.9,00.0,33.5,26.5,11.0,0000.0,0002.36,0004.90,0001.51
2022-03-14 16:49:00,,0830.1,4.99,0.00,24.7,23.9,00.0,33.5,26.5,11.3,0000.0,0002.30,0004.83,0001.50
2022-03-14 16:50:00,,0830.2,5.01,0.00,24.7,23.9,00.0,33.5,26.5,11.2,0000.0,0002.28,0004.66,0001.49
2022-03-14 16:51:00,,0830.2,5.00,0.00,24.7,23.9,00.0,33.6,26.6,11.0,0000.0,0002.25,0004.70,0001.47
2022-03-14 16:52:00,,0830.1,5.01,0.00,24.7,24.0,00.0,33.6,26.6,10.9,0000.0,0002.21,0004.83,0001.44
2022-03-14 16:53:00,,0830.2,4.98,0.00,24.7,24.0,00.0,33.6,26.6,10.8,0000.0,0002.18,0004.69,0001.43
2022-03-14 16:54:00,,0830.1,5.01,0.00,24.8,24.0,00.0,33.6,26.6,11.0,0000.0,0002.20,0004.65,0001.41
2022-03-14 16:55:00,,0830.2,4.99,0.00,24.8,24.0,00.0,33.6,26.7,11.3,0000.0,0002.16,0004.33,0001.39
2022-03-14 16:56:00,,0830.2,5.00,0.00,24.8,24.1,00.0,33.6,26.7,11.0,0000.0,0002.12,0004.27,0001.38
2022-03-14 16:57:00,,0830.2,5.01,0.00,24.8,24.1,00.0,33.6,26.7,10.9,0000.0,0002.11,0004.28,0001.36
2022-03-14 16:58:00,,0830.2,5.01,0.00,24.8,24.1,00.0,33.7,26.7,10.8,0000.0,0002.08,0004.16,0001.35
2022-03-14 16:59:00,,0830.2,4.98,0.00,24.9,24.1,00.0,33.7,26.7,10.7,0000.0,0002.08,0003.85,0001.34
